Home > Time Zones > World Clock > Weather > Russia > Ufa > Past weeks

Flag for Russia Weather past 2 weeks in Ufa, Russia

Now
45 °F

Clear.


Feels Like: 43 °F
Forecast: 41 / 63 °F
Wind: 3 mph from East

Location: Ufa

Current Time: Sep 5, 2015 at 2:49:19 AM

Latest Report: Sep 5, 2015 at 2:00 AM


Visibility: 10 mi

Pressure: 30.15 "Hg

Humidity: 87%

Dew point: 41 °F

Location of UfaLocation

Historic Weather in Ufa — Graph

°F

Ufa temperature yesterday

Maximum temperature yesterday: 61 °F (at 2:30 PM)
Minimum temperature yesterday: 43 °F (at 12:30 AM)
Average temperature yesterday: 51 °F

Past Weeks' High & Low Weather Summary

 TemperatureHumidityPressure
High75 °F (Aug 22, 4:00 PM)100% (Aug 25, 11:30 PM)30.15 "Hg (Aug 25, 11:30 PM)
Low39 °F (Sep 2, 6:30 AM)36% (Sep 2, 4:00 PM)29.36 "Hg (Aug 30, 1:00 PM)
Average54 °F76%29.89 "Hg
* Reported Aug 21 1:00 AM — Sep 5 1:30 AM, Ufa, Weather by CustomWeather, © 2015

Note: Actual official high and low records may vary slightly from our data, if they occured in-between our weather recording intervals... More about our weather records

Advertising

Ufa weather history for previous 24 hours

 ConditionsComfort  
Time TempWeatherWind HumidityBarometerVisibility
1:30 AM
Sat, Sep 5
45 °FClear.1 mph87%30.15 "Hg10 mi
1:00 AM45 °FFog.1 mph87%30.15 "HgN/A
12:30 AM46 °FClear.No wind87%30.15 "Hg10 mi
12:00 AM48 °FClear.3 mph82%30.15 "Hg10 mi
11:30 PM
Fri, Sep 4
48 °FClear.1 mph82%30.15 "Hg10 mi
11:00 PM50 °FClear.3 mph76%30.15 "Hg10 mi
10:30 PM50 °FClear.3 mph76%30.15 "Hg10 mi
10:00 PM52 °FSunny.3 mph72%30.15 "Hg10 mi
9:30 PM52 °FSunny.3 mph72%30.15 "Hg10 mi
9:00 PM52 °FSunny.3 mph72%30.15 "Hg10 mi
8:30 PM54 °FSunny.3 mph67%30.15 "Hg10 mi
8:00 PM54 °FSunny.1 mph67%30.15 "Hg10 mi
7:30 PM55 °FPassing clouds.3 mph63%30.15 "HgN/A
7:00 PM59 °FScattered clouds.3 mph48%30.15 "HgN/A
6:30 PM59 °FScattered clouds.3 mph48%30.15 "HgN/A
6:00 PM61 °FScattered clouds.1 mph45%30.15 "HgN/A
5:30 PM61 °FScattered clouds.1 mph45%30.12 "HgN/A
5:00 PM59 °FPartly sunny.3 mph48%30.15 "HgN/A
4:30 PM61 °FPartly sunny.3 mph45%30.15 "HgN/A
4:00 PM61 °FPartly sunny.1 mph48%30.15 "HgN/A
3:30 PM61 °FPartly sunny.3 mph48%30.15 "HgN/A
3:00 PM61 °FPartly sunny.1 mph45%30.15 "HgN/A
2:30 PM61 °FScattered clouds.3 mph45%30.15 "HgN/A
2:00 PM59 °FScattered clouds.1 mph48%30.15 "HgN/A
1:30 PM57 °FScattered clouds.3 mph59%30.15 "HgN/A
1:00 PM54 °FScattered clouds.3 mph77%30.15 "HgN/A
12:30 PM52 °FPartly sunny.3 mph94%30.15 "HgN/A
12:00 PM48 °FPartly sunny.1 mph94%30.15 "HgN/A
11:30 AM46 °FFog.3 mph100%30.15 "Hg2 mi
11:00 AM46 °FFog.1 mph100%30.15 "Hg2 mi
10:30 AM46 °FFog.1 mph93%30.15 "Hg1 mi
10:00 AM45 °FFog.1 mph100%30.15 "Hg0 mi
9:30 AM45 °FSleet. Cloudy.1 mph100%30.12 "Hg0 mi
9:00 AM45 °FQuite cool.1 mph100%30.12 "Hg0 mi
8:30 AM45 °FFog.1 mph100%30.12 "Hg0 mi
8:00 AM45 °FFog.1 mph100%30.12 "Hg0 mi
7:30 AM45 °FSleet. Overcast.1 mph100%30.09 "Hg0 mi
7:00 AM45 °FFog.1 mph100%30.09 "Hg0 mi
6:30 AM45 °FFog.1 mph100%30.09 "Hg0 mi
6:00 AM45 °FFog.1 mph100%30.07 "Hg0 mi
5:30 AM46 °FFog.No wind93%30.07 "Hg0 mi
5:00 AM46 °FSleet. Overcast.3 mph93%30.07 "Hg0 mi
4:30 AM46 °FFog.3 mph100%30.07 "Hg0 mi
4:00 AM46 °FFog.3 mph93%30.04 "Hg0 mi
3:30 AM46 °FFog.1 mph100%30.04 "Hg0 mi
2:00 AM46 °FFog.1 mph100%30.01 "Hg0 mi
Weather by CustomWeather, © 2015

See weather overviewHow to use our weather pages